Other Surface Observations
Issued by NWS Tucson, AZ

Home | Current Version | Previous Version | Text Only | Print | Product List | Glossary On
Versions: 1 2 3 4 5 6 7 8 9 10 11 12 13 14 15 16 17 18 19 20 21 22 23 24 25 26 27 28 29 30 31 32 33 34 35 36 37 38 39 40 41 42 43 44 45 46 47 48 49 50
705
SXUS55 KTWC 240115
OSOTWC

WEATHER ROUNDUP FOR SOUTHEAST ARIZONA
NATIONAL WEATHER SERVICE TUCSON AZ
615 PM MST THU MAR 23 2017

AZZ504>506-514-240215-
LOCATION       SKY/WX    TMP DP  RH WIND       PRES   REMARKS
TUCSON         PTCLDY    64  24  21 NW15G24   30.04R
DAVIS-MONTHAN  CLEAR     63  24  22 W15G28    30.04R
CHILDRENS PARK N/A      N/A N/A  21 W12               PIMA CO DEQ
ALVERNON/22ND  N/A       65 N/A N/A NW12              PIMA CO DEQ
CHERRY/GLENN   N/A       67 N/A N/A W13               PIMA CO DEQ
TANGERINE      N/A       64 N/A N/A NW10              PIMA CO DEQ
CONTL RANCH    N/A       66  26  22 W12               PIMA CO DEQ
GRANT/1ST      N/A       66  24  20 W14               PIMA CO DEQ
CRAYCROFT/22ND N/A       65  24  21 N/A               PIMA CO DEQ
GOLFLINKS/KOLB N/A       66  25  21 W12               PIMA CO DEQ
AJO/12TH       N/A       65  25  22 W14               PIMA CO DEQ
FAIRGROUNDS    N/A       62 N/A N/A W16               PIMA CO DEQ
SAGUARO        N/A       62  24  23 W11G22            *SABINO CYN
SAN CARLOS     N/A       58  36  43 W9G18             *SAN CARLOS
GREEN VALLEY   N/A       64  20  18 W11               PIMA CO DEQ
HORSE CAMP CYN N/A       55  25  31 W23G33            *ARAVAIPA CYN
RINCON MTNS    N/A       36  23  58 W8G19             *NR MANNING CAMP
$$

AZZ509>511-240215-
LOCATION       SKY/WX    TMP DP  RH WIND       PRES   REMARKS
SAFFORD        MOCLDY    57  31  37 NW22G33   29.99R
STRAY HORSE    N/A       29  26  89 N/A               *
TRAIL CABIN    N/A       35  29  78 NW9G18            *N OF GRANVILLE
BLACK HILLS    NOT AVBL
DRY LAKE       N/A       33  31  93 NW5G15            *NATANES MTNS
NOON CREEK     N/A       50  23  35 SW12G30           *PINALENO MTNS
COLUMBINE      N/A       25  25  99 SW9G23            *PINALENO MTNS
GUTHRIE        N/A       43  25  48 W23G42            *SW OF GUTHRIE
$$

AZZ502-503-513-240215-
LOCATION       SKY/WX    TMP DP  RH WIND       PRES   REMARKS
NOGALES        CLEAR     59  20  22 W13G23    30.06R
SELLS          N/A       67  21  17 NE11G20           *
SASABE         N/A       63  21  20 W10G23            *ALTAR VLY
HOPKINS        N/A       47  18  31 W12G23            *SANTA RITA MTNS
CARR CYN       N/A       50  19  29 SE3G10            *W OF HEREFORD
$$

AZZ507-508-512-240215-
LOCATION       SKY/WX    TMP DP  RH WIND       PRES   REMARKS
SIERRA VISTA   CLEAR     55  12  18 W23G29    30.07R
DOUGLAS        MOCLDY    59  18  20 NW21G30   30.04R
EMPIRE MTNS    NOT AVBL
MULESHOE RANCH N/A       55  24  30 NW13G23           *PRESERVE
HEADQUARTERS   N/A       52  15  23 W12G28            *CHIRICAHUA MTNS
$$

.............................NOTES.............................
THIS IS AN AUTOMATED COLLECTIVE WITH MINIMAL QUALITY CONTROL.
PIMA CO DEQ SITES HAVE NONSTANDARD WIND SENSOR HEIGHTS.
PIMA CO DEQ SITES DO NOT REPORT WIND GUSTS.
* INDICATES WIND SENSORS LOCATED AT 20 FEET INSTEAD OF 33 FEET.
..............................KEY..............................
SKY/WX - SKY CONDITION/WEATHER
TMP    - TEMPERATURE IN FAHRENHEIT
DP     - DEWPOINT IN FAHRENHEIT
RH     - RELATIVE HUMIDITY IN PERCENT
WIND   - DIRECTION AND SPEED IN MILES PER HOUR (MPH)
VRB    - VARIABLE WIND DIRECTION
PRES   - MEAN SEA LEVEL PRESSURE IN INCHES OF MERCURY
         F - FALLING PRESSURE   R - RISING PRESSURE
         S - STEADY PRESSURE
VSB    - VISIBILITY IN MILES
HX     - HEAT INDEX IN FAHRENHEIT
WCI    - WIND CHILL INDEX IN FAHRENHEIT
N/A    - NOT AVAILABLE
AFB    - AIR FORCE BASE
         DAVIS-MONTHAN IS DAVIS-MONTHAN AIR FORCE BASE
CYN    - CANYON
MTNS   - MOUNTAINS
NCA    - NATIONAL CONSERVATION AREA
NR     - NEAR
VLY    - VALLEY
CONTL  - CONTINENTAL
PIMA CO DEQ - PIMA COUNTY DEPT OF ENVIRONMENTAL QUALITY



USA.gov is the U.S. government's official web portal to all federal, state and local government web resources and services.